Location: Bottens
(46.6171°N, 6.6605°E)
Time: 20:39:01
(UTC+00:00)

Cosmos 1937 Rocket - Pass Details

Date: 20 June 2021
Orbit: 746 x 781 km, 74.0° (Epoch: 23 July)

Event Time Altitude Azimuth Distance (km) Brightness Sun altitude
Rises 00:26:13 0° 339° (NNW) 3,277 7.7 -19.0°
Reaches altitude 10° 00:28:38 10° 341° (NNW) 2,345 6.8 -18.9°
Maximum altitude 00:33:58 77° 67° (ENE) 806 3.6 -18.7°
Enters shadow 00:37:19 23° 151° (SSE) 1,596 4.7 -18.5°
